Location: CCZU
(31.6840°N, 119.9550°E)
Time: 07:53:13
(UTC+08:00)

Hubble Space Telescope - Visible Passes

Search period start: 24 April 2019 00:00
Search period end: 04 May 2019 00:00
Orbit: 537 x 540 km, 28.5° (Epoch: 22 April)

Date Brightness Start Highest point End Pass type
(mag) Time Alt. Az. Time Alt. Az. Time Alt. Az.
24 Apr 3.3 03:11:50 13° SE 03:11:50 13° SE 03:12:41 10° ESE visible
24 Apr 1.7 04:47:17 10° SW 04:51:07 37° SSE 04:54:57 10° E visible
25 Apr 3.3 03:01:49 13° ESE 03:01:49 13° ESE 03:02:38 10° ESE visible
25 Apr 1.5 04:37:09 13° WSW 04:40:34 42° S 04:44:30 10° E visible
26 Apr 3.4 02:51:47 13° ESE 02:51:47 13° ESE 02:52:26 10° ESE visible
26 Apr 1.3 04:27:07 17° WSW 04:30:02 47° S 04:34:02 10° E visible
27 Apr 3.6 02:41:45 12° ESE 02:41:45 12° ESE 02:42:07 10° ESE visible
27 Apr 1.1 04:17:05 22° WSW 04:19:31 51° S 04:23:33 10° E visible
28 Apr 3.8 02:31:43 10° ESE 02:31:43 10° ESE 02:31:44 10° ESE visible
28 Apr 1.0 04:07:02 27° WSW 04:09:00 53° S 04:13:02 10° E visible
29 Apr 0.9 03:57:01 35° WSW 03:58:29 55° S 04:02:32 10° E visible
30 Apr 0.9 03:47:03 44° SW 03:47:58 55° S 03:52:01 10° ESE visible
01 May 0.9 03:37:08 52° SSW 03:37:27 53° S 03:41:29 10° ESE visible
02 May 1.1 03:27:18 48° SSE 03:27:18 48° SSE 03:30:56 10° ESE visible
03 May 1.8 03:17:34 35° SE 03:17:34 35° SE 03:20:22 10° ESE visible
